Weather History for Orangeburg, SC

Change the Weather History Date:

Friday, December 14, 2012

  Actual Average Record
Temperature  
Mean Temperature 48 °F 48 °F  
Max Temperature 61 °F 59 °F 78 °F (1956)
Min Temperature 35 °F 37 °F 10 °F (1962)
Degree Days  
Heating Degree Days 17 17  
Month to date heating degree days 100 218  
Since 1 July heating degree days 550 587  
Cooling Degree Days 0 0  
Month to date cooling degree days 2 0  
Year to date cooling degree days 2322 2102  
Moisture  
Dew Point 35 °F    
Average Humidity 72    
Maximum Humidity 92    
Minimum Humidity 36    
Precipitation  
Precipitation 0.00 in 0.12 in 1.98 in (1953)
Month to date precipitation 0.81 1.56  
Year to date precipitation 39.11 44.97  
Sea Level Pressure  
Sea Level Pressure 30.30 in    
Wind  
Wind Speed 2 mph (NNE)    
Max Wind Speed 10 mph    
Max Gust Speed 12 mph    
Visibility 10 miles    
Events      
T = Trace of Precipitation, MM = Missing Value Source: NWS Daily Summary

Daily Weather History Graph

Daily Weather History Graph

Search for Another Location

Airport:

Trip Planner

Search our weather history database for the weather conditions in past years. The results will help you decide how hot, cold, wet, or windy it might be!

Date:

Astronomy

Dec. 14, 2012 Rise Set
Actual Time 7:19 AM EST 5:17 PM EST
Civil Twilight 6:52 AM EST 5:44 PM EST
Nautical Twilight 6:21 AM EST 6:15 PM EST
Astronomical Twilight 5:50 AM EST 6:45 PM EST
Moon 8:25 AM EST (12/14) 7:04 PM EST (12/14)
Length of Visible Light 10h 52m
Length of Day
9h 57m
Waxing Crescent, 3% of the Moon is Illuminated
Dec 14
Waxing Crescent
Dec 20
First Quarter
Dec 28
Full
Jan 4
Last Quarter
Jan 11
New

Hourly Weather History & Observations

Time (EST) Temp. Windchill Dew Point Humidity Pressure Visibility Wind Dir Wind Speed Gust Speed Precip Events Conditions
1:53 AM 39.9 °F - 35.1 °F 83% 30.33 in 10.0 mi Calm Calm - N/A   Clear
2:53 AM 37.9 °F - 35.1 °F 89% 30.31 in 10.0 mi Calm Calm - N/A   Clear
3:53 AM 39.9 °F 37.8 °F 35.1 °F 83% 30.31 in 10.0 mi NE 3.5 mph - N/A   Clear
4:53 AM 37.0 °F 34.5 °F 34.0 °F 89% 30.32 in 8.0 mi NW 3.5 mph - N/A   Clear
5:53 AM 36.0 °F 33.3 °F 33.1 °F 89% 30.34 in 9.0 mi NNW 3.5 mph - N/A   Clear
6:53 AM 36.0 °F - 33.1 °F 89% 30.37 in 9.0 mi Calm Calm - N/A   Clear
7:53 AM 36.0 °F - 33.1 °F 89% 30.37 in 8.0 mi Calm Calm - N/A   Clear
8:53 AM 41.0 °F - 35.1 °F 79% 30.39 in 10.0 mi Calm Calm - N/A   Clear
9:53 AM 46.9 °F - 36.0 °F 66% 30.39 in 10.0 mi ENE 5.8 mph - N/A   Clear
10:53 AM 51.1 °F - 36.0 °F 56% 30.40 in 10.0 mi NNE 6.9 mph - N/A   Clear
11:53 AM 54.0 °F - 37.0 °F 53% 30.36 in 10.0 mi Variable 3.5 mph - N/A   Clear
12:53 PM 57.0 °F - 36.0 °F 45% 30.31 in 10.0 mi NNE 4.6 mph - N/A   Clear
1:53 PM 57.9 °F - 35.1 °F 42% 30.27 in 10.0 mi Variable 4.6 mph - N/A   Clear
2:53 PM 59.0 °F - 35.1 °F 41% 30.25 in 10.0 mi ENE 5.8 mph - N/A   Clear
3:53 PM 60.1 °F - 34.0 °F 38% 30.24 in 10.0 mi NNE 6.9 mph - N/A   Clear
4:53 PM 57.0 °F - 35.1 °F 44% 30.24 in 10.0 mi ENE 3.5 mph - N/A   Clear
5:53 PM 48.0 °F - 39.0 °F 71% 30.24 in 10.0 mi Calm Calm - N/A   Clear
6:53 PM 46.0 °F - 37.9 °F 73% 30.26 in 10.0 mi Calm Calm - N/A   Clear
7:53 PM 42.1 °F - 37.9 °F 85% 30.27 in 10.0 mi Calm Calm - N/A   Clear
8:53 PM 39.9 °F - 36.0 °F 86% 30.25 in 9.0 mi Calm Calm - N/A   Clear
9:53 PM 39.0 °F - 36.0 °F 89% 30.25 in 6.0 mi Calm Calm - N/A   Clear
10:53 PM 39.0 °F - 36.0 °F 89% 30.26 in 10.0 mi Calm Calm - N/A   Clear
11:53 PM 37.0 °F - 35.1 °F 93% 30.25 in 9.0 mi Calm Calm - N/A   Clear